K42C Weather Reports


Display with metric or nautical units.
time (UTC)temp
F
wind
direction
speed
MPH
gust
MPH
rain 1hr
in
rain 24hr
in
rain mn
in
humidity
%
barometer
mb
20260510033814 47 25 3.0 0.0 0.00 0.00 0.01 64 974.4
20260510033723 47 25 3.0 0.0 0.00 0.00 0.01 64 974.4
20260510033042 47 333 6.0 5.0 0.00 0.00 0.01 63 974.2
20260510032404 48 28 7.0 8.0 0.00 0.00 0.01 62 974.1
20260510031723 48 10 7.0 10.0 0.00 0.00 0.01 61 973.9
20260510031046 48 15 8.0 11.0 0.00 0.00 0.01 60 973.8
20260510025727 49 343 3.0 3.0 0.00 0.00 0.01 57 973.4
20260510025046 50 326 6.0 5.0 0.00 0.00 0.01 56 973.2
20260510024409 51 333 3.0 7.0 0.00 0.00 0.01 55 973.2
20260510023728 51 332 5.0 6.0 0.00 0.00 0.01 54 973.1
20260510023051 51 328 5.0 9.0 0.00 0.00 0.01 55 972.9
20260510022410 51 318 2.0 4.0 0.00 0.00 0.01 57 972.7
20260510021732 51 304 1.0 0.0 0.00 0.00 0.01 59 972.5
20260510021051 51 311 0.0 0.0 0.00 0.00 0.01 60 972.2
20260510020414 51 311 0.0 0.0 0.00 0.00 0.01 60 971.9
20260510015733 51 311 0.0 0.0 0.00 0.00 0.01 60 971.8
20260510015055 52 321 0.0 0.0 0.00 0.00 0.01 60 971.7
20260510014414 52 321 0.0 0.0 0.00 0.00 0.01 59 971.4
20260510013737 53 321 0.0 0.0 0.00 0.00 0.01 57 971.2
20260510013056 53 321 0.0 0.0 0.00 0.00 0.01 56 971.1
20260510012419 54 321 0.0 0.0 0.00 0.00 0.01 55 970.8
20260510011738 54 321 0.0 0.0 0.00 0.00 0.01 54 970.6
20260510011100 55 321 1.0 0.0 0.00 0.00 0.01 53 970.4
20260510010419 55 281 0.0 0.0 0.00 0.00 0.01 52 970.2
20260510005742 56 300 0.0 0.0 0.00 0.00 0.01 52 970.1
20260510005101 56 280 4.0 0.0 0.00 0.00 0.01 52 970.0
20260510004424 56 293 1.0 6.0 0.00 0.00 0.01 51 969.8
20260510003743 56 257 4.0 0.0 0.00 0.00 0.01 51 969.6
20260510002424 57 300 3.0 0.0 0.00 0.00 0.01 52 969.1
20260510001747 57 321 5.0 5.0 0.00 0.00 0.01 51 968.9
20260510000429 58 249 5.0 0.0 0.00 0.00 0.01 52 968.8
20260509235748 58 263 5.0 7.0 0.00 0.00 0.01 52 968.7
20260509235110 58 262 0.0 0.0 0.00 0.00 0.01 55 968.6
20260509234429 58 257 4.0 0.0 0.00 0.00 0.01 55 968.5
20260509233752 58 285 3.0 8.0 0.00 0.00 0.01 55 968.4
20260509233111 58 322 5.0 7.0 0.00 0.00 0.01 55 968.3
20260509232434 59 300 6.0 0.0 0.00 0.00 0.01 55 968.2
20260509231753 59 322 8.0 5.0 0.00 0.00 0.01 55 968.1
20260509230435 59 293 6.0 4.0 0.00 0.00 0.01 54 968.0
20260509225757 60 240 7.0 7.0 0.00 0.00 0.01 53 967.9
20260509225116 60 256 3.0 7.0 0.00 0.00 0.01 53 967.8
20260509224439 60 326 5.0 7.0 0.00 0.00 0.01 53 967.8
20260509223758 60 311 6.0 5.0 0.00 0.00 0.01 53 967.7
20260509223121 60 231 7.0 0.0 0.00 0.00 0.01 52 967.6
20260509222440 60 242 7.0 4.0 0.00 0.00 0.01 53 967.7
20260509221803 60 260 2.0 7.0 0.00 0.00 0.01 52 967.8
20260509221122 59 319 5.0 0.0 0.00 0.00 0.01 53 967.7
20260509220444 59 294 6.0 5.0 0.00 0.00 0.01 51 967.6
20260509215803 59 252 7.0 0.0 0.00 0.00 0.01 50 967.4
20260509215126 59 257 7.0 7.0 0.00 0.00 0.01 49 967.3
20260509214445 60 315 8.0 6.0 0.00 0.00 0.01 48 967.2
20260509213808 60 226 2.0 3.0 0.00 0.00 0.01 47 967.0
20260509213127 61 336 7.0 7.0 0.00 0.00 0.01 47 966.9
20260509212450 61 340 8.0 6.0 0.00 0.00 0.01 46 966.8
20260509211809 62 287 7.0 6.0 0.00 0.00 0.01 44 966.7
20260509211131 62 300 6.0 3.0 0.00 0.00 0.01 45 966.4
20260509210451 62 269 5.0 6.0 0.00 0.00 0.01 44 966.3
20260509205813 63 273 3.0 0.0 0.00 0.00 0.01 44 966.0
20260509205132 63 308 5.0 10.0 0.00 0.00 0.01 43 965.9
20260509204455 63 248 5.0 6.0 0.00 0.00 0.01 43 965.8
20260509203814 63 269 6.0 3.0 0.00 0.00 0.01 43 965.7
20260509203137 63 225 6.0 6.0 0.00 0.00 0.01 42 965.6
20260509202456 63 246 4.0 6.0 0.00 0.00 0.01 42 965.7
20260509201819 64 257 5.0 12.0 0.00 0.00 0.01 42 965.6
20260509201138 64 228 7.0 16.0 0.00 0.00 0.01 42 965.6
20260509200500 64 356 4.0 0.0 0.00 0.00 0.01 43 965.4
20260509195820 64 269 8.0 5.0 0.00 0.00 0.01 41 965.5
20260509195142 64 277 7.0 5.0 0.00 0.00 0.01 42 965.4
20260509194501 64 228 7.0 9.0 0.00 0.00 0.01 42 965.2
20260509193824 63 204 5.0 8.0 0.00 0.00 0.01 48 965.4
20260509193143 63 215 6.0 0.0 0.00 0.00 0.01 49 965.4
20260509192506 63 250 4.0 0.0 0.00 0.00 0.01 53 965.1
20260509191825 63 249 8.0 5.0 0.00 0.00 0.01 54 965.3
20260509191148 62 211 10.0 11.0 0.00 0.00 0.01 55 965.3
20260509190507 62 239 6.0 4.0 0.00 0.00 0.01 59 965.2
20260509185830 62 243 7.0 9.0 0.00 0.00 0.01 58 965.3
20260509185149 63 205 2.0 0.0 0.00 0.00 0.01 57 965.2
20260509184511 62 301 7.0 7.0 0.00 0.00 0.01 56 965.3
20260509183831 62 346 7.0 6.0 0.00 0.00 0.01 56 965.1
20260509183153 61 233 8.0 5.0 0.00 0.00 0.01 56 965.2
20260509182513 61 205 9.0 4.0 0.00 0.00 0.01 58 965.2
20260509181835 61 264 3.0 0.0 0.00 0.00 0.01 60 965.3
20260509181154 61 224 5.0 0.0 0.00 0.00 0.01 60 965.4
20260509180517 61 200 8.0 5.0 0.00 0.00 0.01 60 965.4
20260509175836 60 204 2.0 0.0 0.01 0.00 0.01 61 965.5
20260509175159 59 252 2.0 3.0 0.01 0.00 0.01 62 965.5
20260509174518 59 263 7.0 8.0 0.01 0.00 0.01 61 965.5
20260509173841 59 173 2.0 0.0 0.01 0.00 0.01 65 965.4
20260509173200 58 235 5.0 5.0 0.01 0.00 0.01 66 965.4
20260509172523 58 203 4.0 8.0 0.01 0.00 0.01 67 965.5
20260509171842 58 176 3.0 0.0 0.01 0.00 0.01 67 965.6
20260509171204 58 274 3.0 0.0 0.01 0.00 0.01 69 965.7
20260509170524 57 249 2.0 5.0 0.01 0.00 0.01 71 965.8
20260509165846 57 257 0.0 3.0 0.00 0.00 0.01 72 966.0
20260509165206 56 208 0.0 0.0 0.00 0.00 0.01 74 966.0
20260509164528 56 200 0.0 0.0 0.00 0.00 0.01 75 966.3
20260509163847 55 187 4.0 0.0 0.00 0.00 0.01 77 966.3
20260509163210 54 177 1.0 0.0 0.00 0.00 0.01 80 966.1
20260509161211 53 255 3.0 7.0 0.00 0.00 0.01 80 966.4
20260509160534 54 290 1.0 3.0 0.00 0.00 0.00 77 966.8
20260509155853 54 283 4.0 7.0 0.00 0.00 0.00 74 966.9
20260509155216 55 240 1.0 0.0 0.00 0.00 0.00 74 966.7
20260509154535 55 298 3.0 6.0 0.00 0.00 0.00 76 966.5
20260509153857 55 276 4.0 3.0 0.00 0.00 0.00 79 966.4
20260509153217 55 308 4.0 7.0 0.00 0.00 0.00 80 966.2
20260509152539 55 284 6.0 5.0 0.00 0.00 0.00 79 965.7
20260509151858 55 308 2.0 3.0 0.00 0.00 0.00 79 965.4
20260509151221 55 325 8.0 3.0 0.00 0.00 0.00 78 965.8
20260509150540 56 229 6.0 11.0 0.00 0.00 0.00 78 965.5
20260509145903 56 271 5.0 9.0 0.00 0.00 0.00 79 964.9
20260509145222 56 211 3.0 7.0 0.00 0.00 0.00 81 964.6
20260509143904 57 269 9.0 5.0 0.00 0.00 0.00 78 964.5
20260509143227 58 260 8.0 10.0 0.00 0.00 0.00 77 964.3
20260509142546 58 203 6.0 8.0 0.00 0.00 0.00 82 964.0
20260509141908 58 257 6.0 6.0 0.00 0.00 0.00 82 964.0
20260509141343 58 217 4.0 9.0 0.00 0.00 0.00 84 964.1
20260509141228 58 217 4.0 9.0 0.00 0.00 0.00 84 964.1
20260509140550 58 257 10.0 4.0 0.00 0.00 0.00 84 964.1
20260509135909 57 203 6.0 6.0 0.00 0.00 0.00 86 964.0
20260509135232 57 218 7.0 7.0 0.00 0.00 0.00 87 964.0
20260509134551 57 267 7.0 5.0 0.00 0.00 0.00 88 963.9
20260509133233 57 212 10.0 5.0 0.00 0.00 0.00 88 964.0
20260509132556 57 256 8.0 9.0 0.00 0.00 0.00 89 963.9
20260509131915 56 248 3.0 10.0 0.00 0.00 0.00 90 964.0
20260509131238 56 208 10.0 13.0 0.00 0.00 0.00 89 963.9
20260509130557 57 186 8.0 8.0 0.00 0.00 0.00 89 963.9
20260509125919 57 203 6.0 6.0 0.00 0.00 0.00 90 964.0
20260509125238 56 245 9.0 5.0 0.00 0.00 0.00 90 964.1
20260509124601 56 235 8.0 9.0 0.00 0.00 0.00 91 964.1
20260509123920 56 203 9.0 9.0 0.00 0.00 0.00 91 964.2
20260509123243 55 253 9.0 6.0 0.00 0.00 0.00 91 964.1
20260509122602 56 212 9.0 7.0 0.00 0.00 0.00 91 964.2
20260509121925 55 204 9.0 7.0 0.00 0.00 0.00 92 964.1
20260509121244 55 225 7.0 8.0 0.00 0.00 0.00 92 964.2
20260509120606 55 226 8.0 8.0 0.00 0.00 0.00 93 964.3
20260509115926 55 197 5.0 5.0 0.00 0.00 0.00 94 964.4
20260509115248 54 184 3.0 4.0 0.00 0.00 0.00 94 964.5
20260509114607 54 214 6.0 7.0 0.00 0.00 0.00 95 964.7
20260509113930 54 201 6.0 5.0 0.00 0.00 0.00 95 964.7
20260509113249 53 208 4.0 3.0 0.00 0.00 0.00 96 964.7
20260509112611 53 195 4.0 0.0 0.00 0.00 0.00 96 964.7
20260509111930 53 174 3.0 5.0 0.00 0.00 0.00 97 964.6
20260509111253 53 179 4.0 8.0 0.00 0.00 0.00 97 964.6
20260509110612 52 203 7.0 6.0 0.00 0.00 0.00 98 964.8
20260509105935 52 183 6.0 5.0 0.00 0.00 0.00 98 964.8
20260509105254 52 197 0.0 3.0 0.00 0.00 0.00 98 964.8
20260509104616 52 172 6.0 9.0 0.00 0.00 0.00 98 964.5
20260509103935 52 190 4.0 0.0 0.00 0.00 0.00 98 964.6
20260509103258 52 184 6.0 6.0 0.00 0.00 0.00 98 964.7
20260509102617 52 169 6.0 8.0 0.00 0.00 0.00 98 964.8
20260509101940 52 187 2.0 5.0 0.00 0.00 0.00 98 964.8
20260509101259 52 195 5.0 5.0 0.00 0.00 0.00 98 964.9
20260509100621 51 217 4.0 5.0 0.00 0.00 0.00 98 965.2
20260509095940 51 145 1.0 0.0 0.00 0.00 0.00 98 965.2
20260509095305 51 160 5.0 6.0 0.00 0.00 0.00 98 965.1
20260509094622 51 160 7.0 3.0 0.00 0.00 0.00 97 965.1
20260509093944 50 162 7.0 7.0 0.00 0.00 0.00 97 965.1
20260509093304 50 160 6.0 6.0 0.00 0.00 0.00 96 965.4
20260509092626 50 150 4.0 4.0 0.00 0.00 0.00 96 965.6
20260509091945 50 150 2.0 0.0 0.00 0.00 0.00 95 965.6
20260509091308 50 162 5.0 0.0 0.00 0.00 0.00 95 965.7
20260509090627 51 139 1.0 6.0 0.00 0.00 0.00 95 965.7
20260509085949 51 174 3.0 5.0 0.00 0.00 0.00 94 965.7
20260509085308 51 170 3.0 5.0 0.00 0.00 0.00 93 965.9
20260509084631 51 174 7.0 5.0 0.00 0.00 0.00 92 965.8
20260509083950 52 177 6.0 6.0 0.00 0.00 0.00 90 965.7
20260509083312 53 165 9.0 9.0 0.00 0.00 0.00 87 965.9
20260509082631 53 191 7.0 8.0 0.00 0.00 0.00 85 966.0
20260509081954 52 177 2.0 4.0 0.00 0.00 0.00 83 966.4
20260509081313 52 198 4.0 7.0 0.00 0.00 0.00 81 966.3
20260509080636 52 224 7.0 5.0 0.00 0.00 0.00 80 966.6
20260509075955 52 191 4.0 6.0 0.00 0.00 0.00 77 966.6
20260509074636 52 179 0.0 0.0 0.00 0.00 0.00 74 966.9
20260509073959 51 190 7.0 0.0 0.00 0.00 0.00 73 967.0
20260509073318 50 162 0.0 0.0 0.00 0.00 0.00 69 967.1
20260509072640 50 162 0.0 0.0 0.00 0.00 0.00 64 967.2
20260509071855 49 162 0.0 0.0 0.00 0.00 0.00 57 967.3
20260509071322 49 162 0.0 0.0 0.00 0.00 0.00 57 967.3
20260509070641 49 162 0.0 0.0 0.00 0.00 0.00 55 967.5
20260509070003 49 162 0.0 0.0 0.00 0.00 0.00 54 967.5
20260509065322 50 162 0.0 0.0 0.00 0.00 0.00 54 967.7
20260509064645 50 162 0.0 0.0 0.00 0.00 0.00 53 967.8
20260509064004 50 162 0.0 0.0 0.00 0.00 0.00 53 967.9
20260509063326 50 162 0.0 0.0 0.00 0.00 0.00 53 967.9
20260509062645 50 162 0.0 3.0 0.00 0.00 0.00 52 968.0
20260509062008 50 150 0.0 0.0 0.00 0.00 0.00 52 968.1
20260509060649 49 146 0.0 0.0 0.00 0.00 0.00 55 968.3
20260509060008 48 143 4.0 0.0 0.00 0.00 0.00 55 968.3
20260509055331 47 183 0.0 0.0 0.00 0.00 0.00 59 968.5
20260509054650 45 165 0.0 0.0 0.00 0.00 0.00 64 968.4
20260509054012 45 165 0.0 0.0 0.00 0.00 0.00 64 968.5
20260509053331 45 165 0.0 0.0 0.00 0.00 0.00 63 968.5
20260509052653 44 165 0.0 0.0 0.00 0.00 0.00 64 968.5
20260509052012 44 165 0.0 0.0 0.00 0.00 0.00 64 968.6
20260509051335 45 165 0.0 0.0 0.00 0.00 0.00 65 968.6
20260509050654 45 165 0.0 0.0 0.00 0.00 0.00 63 968.7
20260509050016 45 165 0.0 0.0 0.00 0.00 0.00 62 968.7
20260509045335 46 165 0.0 0.0 0.00 0.00 0.00 61 968.7
20260509044658 46 165 0.0 0.0 0.00 0.00 0.00 59 968.7
20260509044017 46 165 0.0 0.0 0.00 0.00 0.00 58 968.8
20260509043339 47 165 0.0 0.0 0.00 0.00 0.00 58 968.7
20260509042658 47 165 0.0 0.0 0.00 0.00 0.00 57 968.8
20260509042021 48 165 0.0 0.0 0.00 0.00 0.00 56 968.8
20260509041340 48 165 0.0 0.0 0.00 0.00 0.00 55 968.9
20260509040702 49 165 0.0 0.0 0.00 0.00 0.00 54 969.0
20260509040021 49 165 0.0 0.0 0.00 0.00 0.00 54 969.1
20260509034702 50 165 0.0 0.0 0.00 0.00 0.00 52 969.2